Weather Roundup
Issued by NWS

Home | Current Version | Previous Version | Graphics & Text | Print | Product List | Glossary Off
Versions: 1 2 3 4 5 6 7 8 9 10 11 12 13 14 15 16 17 18 19 20 21 22 23 24 25 26 27 28 29 30 31 32 33 34 35 36 37 38 39 40 41 42 43 44 45 46 47 48 49 50

000
NZUS93 KARX 170510
HRRWXR

CURRENT HOURLY OBSERVATIONS ACROSS
MUCH OF THE UPPER MISSISSIPPI VALLEY
NATIONAL WEATHER SERVICE LA CROSSE WI
1200 AM CDT TUE OCT 17 2017


...SOUTHEAST MINNESOTA...


CITY           SKY/WX    TMP DP  RH WIND       PRES   REMARKS
ROCHESTER      CLEAR     55  39  54 SW21      30.02F
ROCHESTER/MAYO FAIR      58  37  45 SW16G25   30.01F
WINONA         CLEAR     57  37  47 SW7G17    30.02S
AUSTIN         CLOUDY    52  39  62 S10       30.02F
ALBERT LEA     CLEAR     61  41  48 SW13      30.01F
DODGE CENTER   CLEAR     54  37  54 S14       30.01R
PRESTON        CLEAR     53  37  54 SW15      30.04S
OWATONNA       CLEAR     57  39  51 S13G18    29.99F
FARIBAULT      CLEAR     57  39  51 S8        29.99S
$$

...ELSEWHERE IN MINNESOTA...


CITY           SKY/WX    TMP DP  RH WIND       PRES   REMARKS
MINNEAPOLIS    CLEAR     57  40  52 SW9       29.96F
INTNL FALLS    PTCLDY    48  36  63 W7        29.83R
DULUTH         CLOUDY    50  38  63 W12       29.88S
RED WING       CLEAR     54  36  50 CALM      29.97F
REDWOOD FALLS  CLEAR     52  38  58 SW6       29.97S
MANKATO        CLEAR     54  39  57 SW6       29.99R
WORTHINGTON    CLEAR     54  39  57 SW10      30.02F
FAIRMONT       CLEAR     54  40  59 SW12      30.01S
$$

...SOUTHWEST WISCONSIN...


CITY           SKY/WX    TMP DP  RH WIND       PRES   REMARKS
LA CROSSE      CLOUDY    55  40  56 S13       30.03F
PRAIRIE DU CHI CLEAR     55  36  47 S6        30.10F
BOSCOBEL       CLEAR     42  39  89 CALM      30.11F
LONE ROCK      CLEAR     49  38  65 CALM      30.11F
PLATTEVILLE    CLEAR     48  39  71 S9        30.14F
FORT MC COY    CLOUDY    52  37  57 S3        30.06F
MAUSTON-NEW LI CLOUDY    55  37  50 SW8       30.05F
VIROQUA        FAIR      51  39  62 CALM      30.07F
WIS DELLS      CLOUDY    50  35  56 S9        30.09F
$$

...ELSEWHERE IN WISCONSIN...


CITY           SKY/WX    TMP DP  RH WIND       PRES   REMARKS
MILWAUKEE      CLEAR     49  38  65 SW7       30.16F
MADISON        CLEAR     52  37  56 S6        30.13F
GREEN BAY      CLEAR     47  43  86 MISG      30.07F
EAU CLAIRE     CLEAR     44  37  76 S3        29.98F
BLACK RVR FLS  FAIR      37  37 100 CALM      30.03F
MEDFORD        CLEAR     48  35  60 S8        30.00F
WAUSAU         CLEAR     47  37  68 SW7       30.02F
WIS RAPIDS     CLEAR     47  36  65 S7        30.06F
MARSHFIELD     CLEAR     43  34  70 S6        30.03F
RICE LAKE      CLOUDY    45  37  72 CALM      29.97F
$$

...NORTHEAST IOWA...


CITY           SKY/WX    TMP DP  RH WIND       PRES   REMARKS
WATERLOO       PTCLDY    53  38  56 S14       30.09F
DUBUQUE        CLOUDY    50  38  63 SW14      30.14F
DECORAH        CLEAR     55  37  50 S9G18     30.06S
MASON CITY     PTCLDY    54  39  57 SW14      30.06F
CHARLES CITY   PTCLDY    52  39  62 S9        30.07F
OELWEIN        CLOUDY    52  39  62 S9        30.11F
$$

...ELSEWHERE IN IOWA...


CITY           SKY/WX    TMP DP  RH WIND       PRES   REMARKS
DES MOINES     PTCLDY    54  41  61 S9        30.14S
IOWA CITY      PTCLDY    51  39  63 S5        30.19F
FORT DODGE     CLEAR     54  40  59 S13       30.07F
MARSHALLTOWN   CLOUDY    56  40  55 S15       30.11F
CEDAR RAPIDS   CLOUDY    51  39  63 S9        30.15F
$$

...NORTHERN ILLINOIS...


CITY           SKY/WX    TMP DP  RH WIND       PRES   REMARKS
CHICAGO-OHARE  CLEAR     48  39  71 S5        30.20S
CHICAGO-MIDWAY CLEAR     50  40  68 S6        30.21F
MOLINE         CLEAR     54  36  50 SW8       30.19F
ROCKFORD       CLEAR     46  37  71 S5        30.20F
PEORIA         CLEAR     46  40  79 CALM      30.24F
$$

NOTE: "FAIR" INDICATES FEW OR NO CLOUDS BELOW 12,000 FEET WITH NO
SIGNIFICANT WEATHER AND/OR OBSTRUCTIONS TO VISIBILITY. WIND
SPEEDS ARE IN MILES-PER-HOUR.




USA.gov is the U.S. government's official web portal to all federal, state and local government web resources and services.